Ana Sayfa
METAR-TAF:

METAR-TAF

Havaalanları :

Cherokee County Airport

Jacksonville, Teksas, Amerika Birleşik Devletleri

Enlem: 31-52-09N, Boylam: 095-13-02W, yükseklik: 206 m

Güncel hava durumu gözlemi

Rapor saat 23:15 UTC de 22 dakika önce yapıldı.
Sakin rüzgar
Sıcaklık 12°C
Nem 30%
Basınç 1026 hPa
Görüş mesafesi: 16.1 km
Açık gökyüzü

METAR: KJSO 272315Z AUTO 00000KT 10SM CLR 12/M05 A3029 RMK AO2 T01251048

Saat: 17:37 (23:37 UTC)


TAF: eksik

4.000'den fazla havaalanı için hava durumu gözlemleri ve tahminleri (METAR ve TAF raporları).

Kullanılabilir istasyonlar harita üzerinde sarı ve kırmızı noktalarla gösterilir.

İstasyonun adını görmek için fareyi noktanın üzerinde gezdirin.

Sonrasında hava gözlem ve tahminlerini görmek için tıklayın.

Haritayı değiştirmek için: yaklaştırmak için siyah artı işaretli yeşil düğmeye ve uzaklaştırmak için de eksi işaretli düğmeye hızla tıklayın; bitişik haritalar için yeşil okları kullanın.


METAR-TAF: